User: anonymous   Login
Location: CNYAC Observatory
(43.2150°N, 74.9500°W)
Time: 15:33:27
(UTC-04:00)
Language:

Cosmos 1300 Rocket - Orbit

View from above orbital plane
View from above orbital plane
View from above satellite
View from above satellite

Ground track
Ground track

The orbit data is extracted from the following two-line orbital elements,

1 12786U 81082B   18147.11728334  .00000076  00000-0  61446-5 0  9992
2 12786  82.4890   3.5533 0017092 194.8199 165.2518 14.84728325985842
Epoch (UTC): 27 May 2018 02:48:53
Eccentricity: 0.0017092
inclination: 82.4890°
perigee height: 602 km
apogee height: 626 km
right ascension of ascending node: 3.5533°
argument of perigee: 194.8199°
revolutions per day: 14.84728325
mean anomaly at epoch: 165.2518°
orbit number at epoch: 98584

The dashed part of the orbit path shows where the satellite is in the earth's shadow,  

DLR